Weather in Mshinskaya

Russia / Saint-Petersburg and Leningrad Oblast     59°00′56″N   29°56′21″E
temp.,
°C
wind,
m/s
gust,
m/s
humid.,
%
clouds,
%
prec.,
mm/h
press.,
hPa
HPBL,
m
14 may, fri
fri1400:00+13ssw3870100 0.0 1011354
03:00+10sse2786100 0.0 1011231
06:00+9sse279389 0.0 1011243
09:00+14sse46630 0.0 1011850
12:00+17sse5851100 0.0 10111705
15:00+15se486994 0.0 10111116
18:00+17se486152 0.0 10101334
21:00+13ese25845 0.0 1010106
15 may, sat
sat1500:00+10ese24945 0.0 101084
03:00+10e239613 0.0 100959
06:00+11e279298 0.0 1008193
09:00+14ese3877100 0.1 1007432
12:00+13ene2696100 1.0 1006361
15:00+17se237994 2.1 1005755
18:00+17sse2384100 2.3 1004483
21:00+14sse119444 3.1 100310
16 may, sun
sun1600:00+11se119672 0.0 100310
03:00+10w119760 0.1 100411
06:00+11w379993 0.0 1005249
09:00+11w3696100 0.0 1007395
12:00+15w3576100 0.0 1008912
15:00+18wnw246186 0.1 10091285
18:00+20sw334314 0.0 10091758
21:00+13wsw126921 0.0 101011
17 may, mon
mon1700:00+11e11798 0.0 101110
03:00+10se22854 0.0 101120
06:00+11ese26845 0.0 1011145
09:00+17se36675 0.0 1011601
12:00+21sse4651100 0.0 10101638
15:00+22se4745100 0.0 10091975
18:00+22se4854100 0.0 10071775
21:00+17s4974100 0.1 1006434
18 may, tue
tue1800:00+15ene31197100 2.8 1003436
03:00+15se31197100 5.5 1000645
06:00+13w6119496 1.3 1001561
09:00+12wsw3795100 1.3 1004454
12:00+16wsw3473100 0.0 1006878
15:00+18sw2357100 0.1 10051300
18:00+18sse115991 0.0 1005616
21:00+15n1174100 0.0 100512